Regional Weather Roundup
Issued by NWS Sterling, VA

Home | Current Version | Previous Version | Graphics & Text | Print | Product List | Glossary On
Versions: 1 2 3 4 5 6 7 8 9 10 11 12 13 14 15 16 17 18 19 20 21 22 23 24 25 26 27 28 29 30 31 32 33 34 35 36 37 38 39 40 41 42 43 44 45 46 47 48 49 50
000
ASUS41 KLWX 280511
RWRLWX

REGIONAL WEATHER ROUNDUP
NATIONAL WEATHER SERVICE BALTIMORE MD/WASHINGTON DC
100 AM EDT THU JUL 28 2016

Note: "FAIR" indicates few or no clouds below 12,000 feet
with no significant weather and/or obstructions to visibility.
 TC=TEMPERATURE CELSIUS

 * =Non NWS site. Station does not report precipitation (e.g. rain,
    snow, etc.), thunder, or fog.

DCZ001-MDZ009-015-VAZ040>042-051-053>054-280600-
WASHINGTON METRO

CITY           SKY/WX    TMP DP  RH WIND       PRES   REMARKS
WASHINGTON NAT FAIR      83  74  74 S5        29.91S
DULLES         MOCLDY    75  71  87 CALM      29.93R
ANDREWS AFB    CLEAR     77  72  85 S3        29.91S
FT BELVOIR     FAIR      76  73  88 CALM      29.91S
QUANTICO       FAIR      81  76  84 CALM      29.92R
COLLEGE PARK*  MOCLDY    77  72  83 CALM      29.91R
LEESBURG*      FAIR      77  73  88 SW3       29.93S
MANASSAS*      MOCLDY    75  73  94 S3        29.92R
GAITHERSBURG*  MOCLDY    75  70  83 CALM      29.97R

$$

MDZ006>007-011-014-280600-
BALTIMORE METRO

CITY           SKY/WX    TMP DP  RH WIND       PRES   REMARKS
BWI AIRPORT    MOCLDY    81  71  71 CALM      29.91R
MD SCIENCE CTR   N/A     86  69  56 MISG      29.91R HX  90
MARTIN STATE   PTCLDY    79  77  94 CALM      29.92S
ANNAPOLIS      PTCLDY    82  73  74 CALM      29.90R
FORT MEADE*    CLOUDY    73  72  94 CALM      29.93S

$$

MDZ012-015-019>023-280600-
MARYLAND EASTERN SHORE

CITY           SKY/WX    TMP DP  RH WIND       PRES   REMARKS
OCEAN CITY     CLOUDY    80  78  94 SW3       29.91S
SALISBURY      MOCLDY    79  77  94 CALM      29.91S FOG
EASTON*        CLEAR     81  78  90 CALM      29.95S

$$

MDZ017>025-280600-
SOUTHERN MARYLAND

CITY           SKY/WX    TMP DP  RH WIND       PRES   REMARKS
PATUXENT RIVER PTCLDY    80  72  76 SW7       29.91R
ST INIGOES     PTCLDY    81  74  79 CALM      29.91S
LEONARDTOWN*     N/A    N/A N/A N/A MISG        N/A

$$

MDZ003>005-280600-
NORTH CENTRAL MARYLAND

CITY           SKY/WX    TMP DP  RH WIND       PRES   REMARKS
FREDERICK*     PTCLDY    73  73 100 CALM      29.95R
HAGERSTOWN APT MOCLDY    78  69  73 SE6       29.94R

$$

MDZ501>502-280600-
WESTERN MARYLAND

CITY           SKY/WX    TMP DP  RH WIND       PRES   REMARKS
OAKLAND*       PTCLDY    70  64  83 SW5       30.08S
CUMBERLAND*    PTCLDY    79  68  69 N5        29.98S

$$

VAZ025>031-280600-
SHENANDOAH VALLEY

CITY           SKY/WX    TMP DP  RH WIND       PRES   REMARKS
WINCHESTER*    FAIR      72  70  94 CALM      29.95R
FRONT ROYAL*   FAIR      72  70  94 S5        29.93S
LURAY*         NOT AVBL
NEW MARKET*    MOCLDY   N/A N/A N/A CALM      29.96R
STAUNTON*      FOG       69  69 100 CALM      30.00S VSB 1
WAYNESBORO*    FAIR      70  68  96 CALM      30.00S

$$

WVZ021-048>050-054>055-280600-
EASTERN WEST VIRGINIA PANHANDLE

CITY           SKY/WX    TMP DP  RH WIND       PRES   REMARKS
MARTINSBURG    FAIR      73  69  87 S3        29.93R
PETERSBURG*    FAIR      74  72  92 CALM      29.96S

$$

VAZ036>039-050-280600-
CENTRAL FOOTHILLS

CITY           SKY/WX    TMP DP  RH WIND       PRES   REMARKS
CHARLOTTESVILL FAIR      76  73  91 CALM      29.94S
CULPEPER*      FAIR      74  74 100 CALM      29.94R FOG
ORANGE*          N/A     73  73 100 CALM      29.96R
GORDONSVILLE*  MOCLDY    73  73 100 S8        29.94R
WARRENTON*     FAIR      74  69  83 CALM      29.92S

$$

VAZ055>057-280600-
NORTH AND CENTRAL PIEDMONT

CITY           SKY/WX    TMP DP  RH WIND       PRES   REMARKS
FREDERICKSBRG* FAIR      79  74  86 CALM      29.91S
STAFFORD*      FAIR      74  73  95 CALM      29.95S FOG

$$

NCZ024-NYZ072-PAZ021-071-VAZ022-071-280600-
OTHER REGIONAL OBSERVATIONS

CITY           SKY/WX    TMP DP  RH WIND       PRES   REMARKS
NEW YORK CITY  CLEAR     80  68  66 CALM      29.93S
PHILADELPHIA   CLEAR     79  71  76 CALM      29.92R
PITTSBURGH     PTCLDY    75  60  59 CALM      29.96F
ROANOKE        FAIR      75  74  96 N5        30.00S
RICHMOND       FAIR      76  73  91 S8        29.93S
RALEIGH        PTCLDY    77  72  84 CALM      29.96S

$$

ANZ530>537-280600-
MARINE OBSERVATIONS

STATION/POSITION TIME  TEMP    WIND        PRES
                       AIR SEA DIR/SP/G
                 (UTC) (F)     (DEG/KT/KT) (MB)
THOMAS PT LIGHT  0500   84 84  220/  7/  8 1014.1R
BALT KEY BRIDGE  0448   85     140/  3/  4 1012.6R
COVE POINT       0448   83     260/  8/ 11 1013.3R
LEWISETTA        0448   80 88  250/  6/  8 1012.6R
SOLOMONS ISLAND  0448   82 86  240/  3/  5   N/A
PINEY POINT      0448          330/  2/  2   N/A

$$




USA.gov is the U.S. government's official web portal to all federal, state and local government web resources and services.